TimeCDT,TemperatureF,Dew PointF,Humidity,Sea Level PressureIn,VisibilityMPH,Wind Direction,Wind SpeedMPH,Gust SpeedMPH,PrecipitationIn,Events,Conditions,WindDirDegrees,DateUTC
12:53 AM,59.0,57.0,93,30.05,10.0,Calm,Calm,-,N/A,,Clear,0,2013-07-25 05:53:00
1:53 AM,60.1,55.9,86,30.04,10.0,Calm,Calm,-,N/A,,Clear,0,2013-07-25 06:53:00
2:53 AM,59.0,55.9,90,30.05,10.0,Calm,Calm,-,N/A,,Clear,0,2013-07-25 07:53:00
3:53 AM,57.9,55.9,93,30.06,10.0,Calm,Calm,-,N/A,,Clear,0,2013-07-25 08:53:00
4:53 AM,57.0,55.0,93,30.07,10.0,Calm,Calm,-,N/A,,Clear,0,2013-07-25 09:53:00
5:53 AM,57.0,54.0,89,30.08,10.0,Calm,Calm,-,N/A,,Clear,0,2013-07-25 10:53:00
6:53 AM,61.0,57.9,90,30.09,10.0,WSW,3.5,-,N/A,,Clear,250,2013-07-25 11:53:00
7:53 AM,66.0,57.0,73,30.09,10.0,South,3.5,-,N/A,,Clear,180,2013-07-25 12:53:00
8:53 AM,69.1,59.0,70,30.09,10.0,SSW,4.6,-,N/A,,Clear,200,2013-07-25 13:53:00
9:53 AM,72.0,59.0,64,30.10,10.0,South,3.5,-,N/A,,Clear,180,2013-07-25 14:53:00
10:53 AM,75.0,57.9,55,30.11,10.0,SSW,4.6,-,N/A,,Clear,200,2013-07-25 15:53:00
11:53 AM,77.0,57.9,52,30.10,10.0,Variable,3.5,-,N/A,,Clear,0,2013-07-25 16:53:00
12:53 PM,79.0,60.1,52,30.09,10.0,South,6.9,-,N/A,,Clear,190,2013-07-25 17:53:00
1:53 PM,79.0,60.1,52,30.08,10.0,SSE,5.8,-,N/A,,Partly Cloudy,150,2013-07-25 18:53:00
2:53 PM,80.1,60.1,50,30.06,10.0,SSE,9.2,-,N/A,,Partly Cloudy,150,2013-07-25 19:53:00
3:53 PM,82.0,62.1,51,30.05,10.0,South,6.9,-,N/A,,Clear,180,2013-07-25 20:53:00
5:53 PM,78.1,62.1,58,30.04,10.0,South,8.1,-,N/A,,Clear,180,2013-07-25 22:53:00
6:53 PM,77.0,62.1,60,30.04,10.0,South,8.1,-,N/A,,Clear,170,2013-07-25 23:53:00
7:53 PM,75.0,61.0,62,30.03,10.0,South,8.1,-,N/A,,Clear,170,2013-07-26 00:53:00
8:53 PM,73.9,61.0,64,30.03,10.0,South,11.5,-,N/A,,Clear,170,2013-07-26 01:53:00
9:53 PM,73.9,61.0,64,30.03,10.0,South,9.2,-,N/A,,Clear,180,2013-07-26 02:53:00
10:53 PM,73.0,61.0,66,30.04,10.0,South,6.9,-,N/A,,Mostly Cloudy,170,2013-07-26 03:53:00
11:53 PM,70.0,63.0,78,30.03,8.0,South,5.8,-,0.00,Rain,Light Rain,180,2013-07-26 04:53:00